Location: Allaines
(49.9632°N, 2.9458°E)
Time: 17:57:52
(UTC+00:00)

In-Cosmos 22 Rocket - Pass Details

Date: 09 April 2020
Orbit: 790 x 888 km, 81.2° (Epoch: 29 May)

Event Time Altitude Azimuth Distance (km) Brightness Sun altitude
Rises 20:20:18 0° 347° (NNW) 3,507 8.2 -16.4°
Reaches altitude 10° 20:22:46 10° 348° (NNW) 2,566 7.4 -16.8°
Maximum altitude 20:28:39 87° 80° (E) 896 4.3 -17.5°
Enters shadow 20:32:41 21° 168° (SSE) 1,873 5.6 -18.0°
